| time (UTC) | temp F | wind direction | speed MPH | gust MPH | rain 1hr in | rain 24hr in | rain mn in | humidity % | barometer mb |
| 20260510140437 | 53 | 62 | 7.0 | 13.0 | 0.00 | 0.32 | 0.00 | 52 | 1016.2 |
| 20260510135436 | 53 | 39 | 7.0 | 12.0 | 0.00 | 0.32 | 0.00 | 49 | 1016.6 |
| 20260510134405 | 52 | 52 | 5.0 | 13.0 | 0.00 | 0.32 | 0.00 | 54 | 1016.6 |
| 20260510133404 | 52 | 63 | 8.0 | 14.0 | 0.00 | 0.32 | 0.00 | 53 | 1016.2 |
| 20260510132403 | 53 | 63 | 7.0 | 14.0 | 0.00 | 0.32 | 0.00 | 54 | 1016.2 |
| 20260510131331 | 53 | 63 | 5.0 | 10.0 | 0.00 | 0.32 | 0.00 | 55 | 1015.9 |
| 20260510130331 | 52 | 96 | 3.0 | 10.0 | 0.00 | 0.32 | 0.00 | 55 | 1015.8 |
| 20260510125330 | 51 | 60 | 4.0 | 9.0 | 0.00 | 0.32 | 0.00 | 56 | 1015.5 |
| 20260510124329 | 50 | 60 | 3.0 | 9.0 | 0.00 | 0.32 | 0.00 | 62 | 1015.5 |
| 20260510123257 | 49 | 69 | 4.0 | 12.0 | 0.00 | 0.32 | 0.00 | 64 | 1015.1 |
| 20260510122257 | 48 | 57 | 7.0 | 12.0 | 0.00 | 0.32 | 0.00 | 63 | 1015.1 |
| 20260510121256 | 48 | 51 | 6.0 | 12.0 | 0.00 | 0.32 | 0.00 | 66 | 1015.1 |
| 20260510120255 | 48 | 65 | 7.0 | 11.0 | 0.00 | 0.32 | 0.00 | 71 | 1014.8 |
| 20260510115254 | 48 | 61 | 4.0 | 10.0 | 0.00 | 0.32 | 0.00 | 74 | 1014.4 |
| 20260510114222 | 48 | 68 | 3.0 | 10.0 | 0.00 | 0.32 | 0.00 | 74 | 1014.4 |
| 20260510113221 | 47 | 50 | 7.0 | 10.0 | 0.00 | 0.32 | 0.00 | 74 | 1014.1 |
| 20260510112221 | 47 | 58 | 3.0 | 9.0 | 0.00 | 0.32 | 0.00 | 76 | 1013.7 |
| 20260510111220 | 47 | 63 | 4.0 | 9.0 | 0.00 | 0.32 | 0.00 | 76 | 1013.4 |
| 20260510110228 | 47 | 53 | 6.0 | 9.0 | 0.00 | 0.32 | 0.00 | 76 | 1013.4 |
| 20260510104845 | 48 | 64 | 3.0 | 8.0 | 0.00 | 0.32 | 0.00 | 77 | 1013.1 |
| 20260510103845 | 48 | 66 | 3.0 | 7.0 | 0.00 | 0.32 | 0.00 | 79 | 1012.9 |
| 20260510102844 | 48 | 57 | 3.0 | 11.0 | 0.00 | 0.32 | 0.00 | 79 | 1012.8 |
| 20260510101843 | 48 | 67 | 5.0 | 10.0 | 0.00 | 0.32 | 0.00 | 78 | 1012.4 |
| 20260510100841 | 48 | 62 | 3.0 | 5.0 | 0.00 | 0.32 | 0.00 | 79 | 1012.4 |
| 20260510095840 | 48 | 61 | 3.0 | 6.0 | 0.00 | 0.32 | 0.00 | 80 | 1012.5 |
| 20260510094839 | 47 | 59 | 2.0 | 6.0 | 0.00 | 0.32 | 0.00 | 81 | 1012.1 |
| 20260510093838 | 47 | 27 | 1.0 | 2.0 | 0.00 | 0.32 | 0.00 | 85 | 1012.1 |
| 20260510092837 | 46 | 17 | 1.0 | 2.0 | 0.00 | 0.32 | 0.00 | 86 | 1012.1 |
| 20260510091836 | 46 | 17 | 1.0 | 2.0 | 0.00 | 0.32 | 0.00 | 89 | 1012.1 |
| 20260510090836 | 46 | 17 | 0.0 | 2.0 | 0.00 | 0.32 | 0.00 | 88 | 1011.7 |
| 20260510085835 | 46 | 17 | 1.0 | 2.0 | 0.00 | 0.32 | 0.00 | 89 | 1011.4 |
| 20260510084833 | 46 | 17 | 0.0 | 2.0 | 0.00 | 0.32 | 0.00 | 89 | 1011.4 |
| 20260510083833 | 46 | 17 | 2.0 | 2.0 | 0.00 | 0.32 | 0.00 | 87 | 1011.1 |
| 20260510082831 | 46 | 17 | 0.0 | 0.0 | 0.00 | 0.32 | 0.00 | 85 | 1011.1 |
| 20260510081830 | 47 | 17 | 0.0 | 2.0 | 0.00 | 0.32 | 0.00 | 80 | 1011.1 |
| 20260510080829 | 47 | 17 | 0.0 | 2.0 | 0.00 | 0.32 | 0.00 | 80 | 1011.1 |
| 20260510075829 | 47 | 16 | 1.0 | 2.0 | 0.00 | 0.32 | 0.00 | 80 | 1011.1 |
| 20260510074757 | 48 | 16 | 0.0 | 2.0 | 0.00 | 0.32 | 0.00 | 80 | 1010.8 |
| 20260510073756 | 48 | 49 | 1.0 | 2.0 | 0.00 | 0.32 | 0.00 | 76 | 1010.8 |
| 20260510072724 | 48 | 106 | 1.0 | 2.0 | 0.00 | 0.32 | 0.00 | 74 | 1010.1 |
| 20260510071723 | 49 | 145 | 1.0 | 3.0 | 0.00 | 0.32 | 0.00 | 72 | 1010.1 |
| 20260510070723 | 49 | 78 | 1.0 | 5.0 | 0.00 | 0.32 | 0.00 | 72 | 1009.8 |
| 20260510065722 | 49 | 72 | 1.0 | 5.0 | 0.00 | 0.32 | 0.00 | 72 | 1009.8 |
| 20260510064650 | 50 | 57 | 2.0 | 6.0 | 0.00 | 0.32 | 0.00 | 71 | 1009.8 |
| 20260510063649 | 50 | 80 | 2.0 | 11.0 | 0.00 | 0.32 | 0.00 | 71 | 1009.8 |
| 20260510062648 | 50 | 88 | 5.0 | 11.0 | 0.00 | 0.32 | 0.00 | 70 | 1009.8 |
| 20260510061647 | 51 | 62 | 3.0 | 13.0 | 0.00 | 0.32 | 0.00 | 70 | 1009.8 |
| 20260510060646 | 52 | 76 | 6.0 | 17.0 | 0.00 | 0.32 | 0.00 | 72 | 1009.5 |
| 20260510055645 | 53 | 67 | 7.0 | 17.0 | 0.00 | 0.32 | 0.00 | 74 | 1009.2 |
| 20260510054645 | 54 | 47 | 10.0 | 15.0 | 0.00 | 0.32 | 0.00 | 83 | 1009.2 |
| 20260510053644 | 54 | 1 | 11.0 | 14.0 | 0.00 | 0.32 | 0.00 | 88 | 1008.9 |
| 20260510052643 | 54 | 339 | 2.0 | 4.0 | 0.00 | 0.32 | 0.00 | 89 | 1008.5 |
| 20260510051642 | 54 | 326 | 2.0 | 9.0 | 0.00 | 0.32 | 0.00 | 88 | 1008.2 |
| 20260510050610 | 55 | 338 | 2.0 | 9.0 | 0.00 | 0.32 | 0.00 | 88 | 1008.2 |
| 20260510045609 | 54 | 345 | 4.0 | 10.0 | 0.00 | 0.32 | 0.00 | 89 | 1007.8 |
| 20260510044609 | 55 | 347 | 3.0 | 12.0 | 0.00 | 0.32 | 0.00 | 88 | 1007.9 |
| 20260510043536 | 54 | 27 | 7.0 | 12.0 | 0.00 | 0.32 | 0.00 | 89 | 1007.8 |
| 20260510042536 | 54 | 253 | 2.0 | 4.0 | 0.00 | 0.32 | 0.00 | 88 | 1006.8 |
| 20260510041535 | 54 | 270 | 2.0 | 3.0 | 0.00 | 0.32 | 0.00 | 87 | 1006.8 |
| 20260510040501 | 55 | 264 | 1.0 | 5.0 | 0.00 | 0.32 | 0.00 | 86 | 1006.8 |
| 20260510035501 | 55 | 258 | 1.0 | 7.0 | 0.01 | 0.32 | 0.32 | 86 | 1006.8 |
| 20260510034500 | 55 | 258 | 4.0 | 7.0 | 0.01 | 0.32 | 0.32 | 86 | 1006.8 |
| 20260510033459 | 55 | 272 | 2.0 | 4.0 | 0.03 | 0.32 | 0.32 | 87 | 1006.8 |
| 20260510032458 | 55 | 259 | 1.0 | 2.0 | 0.03 | 0.32 | 0.32 | 87 | 1006.8 |
| 20260510031425 | 56 | 256 | 1.0 | 3.0 | 0.03 | 0.32 | 0.32 | 88 | 1006.8 |
| 20260510030424 | 56 | 259 | 1.0 | 5.0 | 0.03 | 0.32 | 0.32 | 87 | 1006.8 |
| 20260510025424 | 56 | 300 | 1.0 | 8.0 | 0.02 | 0.31 | 0.31 | 87 | 1006.4 |
| 20260510024423 | 56 | 268 | 2.0 | 9.0 | 0.05 | 0.31 | 0.31 | 86 | 1006.8 |
| 20260510023422 | 56 | 294 | 5.0 | 9.0 | 0.10 | 0.29 | 0.29 | 86 | 1007.1 |
| 20260510022421 | 56 | 265 | 5.0 | 9.0 | 0.10 | 0.29 | 0.29 | 86 | 1006.7 |
| 20260510021420 | 56 | 278 | 6.0 | 9.0 | 0.10 | 0.29 | 0.29 | 86 | 1006.7 |
| 20260510020419 | 56 | 290 | 5.0 | 19.0 | 0.10 | 0.29 | 0.29 | 85 | 1006.4 |
| 20260510015419 | 57 | 305 | 7.0 | 25.0 | 0.10 | 0.29 | 0.29 | 84 | 1006.7 |
| 20260510014418 | 57 | 309 | 13.0 | 25.0 | 0.07 | 0.26 | 0.26 | 79 | 1007.0 |
| 20260510013417 | 56 | 269 | 2.0 | 4.0 | 0.00 | 0.19 | 0.19 | 85 | 1006.0 |
| 20260510012314 | 56 | 272 | 2.0 | 4.0 | 0.00 | 0.19 | 0.19 | 85 | 1005.6 |
| 20260510011313 | 56 | 271 | 1.0 | 4.0 | 0.00 | 0.19 | 0.19 | 86 | 1005.6 |
| 20260510010312 | 56 | 282 | 2.0 | 5.0 | 0.00 | 0.19 | 0.19 | 85 | 1005.6 |
| 20260510005311 | 56 | 298 | 2.0 | 5.0 | 0.00 | 0.19 | 0.19 | 83 | 1005.6 |
| 20260510004311 | 56 | 294 | 2.0 | 10.0 | 0.00 | 0.19 | 0.19 | 83 | 1005.3 |
| 20260510003239 | 57 | 296 | 3.0 | 12.0 | 0.01 | 0.20 | 0.19 | 82 | 1005.3 |
| 20260510002238 | 57 | 295 | 6.0 | 12.0 | 0.01 | 0.20 | 0.19 | 82 | 1005.3 |
| 20260510001206 | 57 | 297 | 5.0 | 12.0 | 0.03 | 0.21 | 0.19 | 83 | 1005.6 |
| 20260510000032 | 57 | 308 | 5.0 | 12.0 | 0.05 | 0.21 | 0.19 | 83 | 1005.6 |
| 20260509235031 | 57 | 319 | 8.0 | 17.0 | 0.07 | 0.22 | 0.19 | 83 | 1005.6 |
| 20260509233959 | 57 | 311 | 12.0 | 18.0 | 0.15 | 0.22 | 0.19 | 83 | 1005.6 |
| 20260509232958 | 56 | 300 | 10.0 | 18.0 | 0.18 | 0.22 | 0.18 | 83 | 1005.2 |
| 20260509231957 | 56 | 316 | 10.0 | 18.0 | 0.17 | 0.22 | 0.18 | 84 | 1005.5 |
| 20260509230956 | 56 | 316 | 12.0 | 22.0 | 0.16 | 0.21 | 0.16 | 84 | 1005.5 |
| 20260509225853 | 56 | 321 | 10.0 | 31.0 | 0.14 | 0.19 | 0.14 | 84 | 1005.5 |
| 20260509224852 | 57 | 355 | 16.0 | 37.0 | 0.11 | 0.17 | 0.11 | 85 | 1005.6 |
| 20260509223820 | 66 | 350 | 23.0 | 37.0 | 0.01 | 0.08 | 0.01 | 66 | 1005.5 |
| 20260509222819 | 68 | 301 | 10.0 | 22.0 | 0.00 | 0.08 | 0.00 | 57 | 1003.9 |
| 20260509221818 | 69 | 279 | 13.0 | 23.0 | 0.00 | 0.10 | 0.00 | 56 | 1003.6 |
| 20260509220818 | 69 | 276 | 16.0 | 26.0 | 0.00 | 0.11 | 0.00 | 54 | 1003.2 |
| 20260509215745 | 69 | 272 | 16.0 | 24.0 | 0.00 | 0.11 | 0.00 | 53 | 1003.6 |
| 20260509214745 | 70 | 279 | 14.0 | 24.0 | 0.00 | 0.12 | 0.00 | 55 | 1003.3 |
| 20260509213744 | 70 | 276 | 15.0 | 25.0 | 0.00 | 0.13 | 0.00 | 54 | 1003.3 |
| 20260509212712 | 71 | 269 | 16.0 | 24.0 | 0.00 | 0.14 | 0.00 | 52 | 1003.3 |
| 20260509211711 | 70 | 273 | 15.0 | 25.0 | 0.00 | 0.15 | 0.00 | 53 | 1003.3 |
| 20260509210710 | 71 | 269 | 18.0 | 27.0 | 0.00 | 0.15 | 0.00 | 51 | 1003.3 |
| 20260509205709 | 71 | 266 | 14.0 | 25.0 | 0.00 | 0.16 | 0.00 | 55 | 1003.6 |
| 20260509204708 | 71 | 267 | 16.0 | 25.0 | 0.00 | 0.16 | 0.00 | 54 | 1003.6 |
| 20260509203708 | 70 | 259 | 14.0 | 28.0 | 0.00 | 0.16 | 0.00 | 54 | 1003.9 |
| 20260509202707 | 71 | 252 | 14.0 | 28.0 | 0.00 | 0.17 | 0.00 | 54 | 1004.0 |
| 20260509201706 | 71 | 272 | 12.0 | 22.0 | 0.00 | 0.18 | 0.00 | 56 | 1004.3 |
| 20260509200705 | 71 | 280 | 16.0 | 22.0 | 0.00 | 0.18 | 0.00 | 55 | 1004.6 |
| 20260509195704 | 70 | 281 | 14.0 | 24.0 | 0.00 | 0.18 | 0.00 | 58 | 1004.6 |
| 20260509194703 | 70 | 268 | 11.0 | 24.0 | 0.00 | 0.18 | 0.00 | 59 | 1004.9 |
| 20260509193631 | 70 | 277 | 18.0 | 25.0 | 0.00 | 0.18 | 0.00 | 57 | 1004.9 |
| 20260509192630 | 69 | 253 | 7.0 | 22.0 | 0.00 | 0.18 | 0.00 | 61 | 1004.9 |
| 20260509191630 | 69 | 274 | 13.0 | 22.0 | 0.00 | 0.18 | 0.00 | 59 | 1005.2 |
| 20260509190629 | 69 | 264 | 13.0 | 21.0 | 0.00 | 0.18 | 0.00 | 60 | 1005.2 |
| 20260509185556 | 68 | 262 | 12.0 | 24.0 | 0.00 | 0.18 | 0.00 | 60 | 1005.6 |
| 20260509184556 | 68 | 276 | 16.0 | 24.0 | 0.00 | 0.18 | 0.00 | 60 | 1005.6 |
| 20260509183555 | 68 | 262 | 12.0 | 24.0 | 0.00 | 0.18 | 0.00 | 61 | 1005.6 |
| 20260509182522 | 68 | 277 | 16.0 | 26.0 | 0.00 | 0.18 | 0.00 | 62 | 1005.9 |
| 20260509181449 | 67 | 275 | 15.0 | 27.0 | 0.00 | 0.18 | 0.00 | 62 | 1005.9 |
| 20260509180448 | 67 | 260 | 11.0 | 21.0 | 0.00 | 0.18 | 0.00 | 63 | 1005.5 |
| 20260509175447 | 67 | 255 | 12.0 | 23.0 | 0.00 | 0.18 | 0.00 | 63 | 1005.5 |
| 20260509174415 | 67 | 272 | 12.0 | 19.0 | 0.00 | 0.18 | 0.00 | 63 | 1005.5 |
| 20260509173414 | 66 | 270 | 12.0 | 22.0 | 0.00 | 0.18 | 0.00 | 64 | 1005.5 |
| 20260509172414 | 66 | 284 | 13.0 | 22.0 | 0.00 | 0.18 | 0.00 | 65 | 1005.8 |
| 20260509171412 | 66 | 294 | 11.0 | 19.0 | 0.00 | 0.18 | 0.00 | 65 | 1005.8 |
| 20260509170411 | 65 | 276 | 10.0 | 16.0 | 0.00 | 0.18 | 0.00 | 68 | 1005.8 |
| 20260509165410 | 65 | 267 | 10.0 | 17.0 | 0.00 | 0.18 | 0.00 | 66 | 1005.8 |
| 20260509164409 | 64 | 271 | 10.0 | 17.0 | 0.00 | 0.18 | 0.00 | 68 | 1005.8 |
| 20260509163408 | 64 | 266 | 10.0 | 17.0 | 0.00 | 0.18 | 0.00 | 70 | 1005.8 |
| 20260509162407 | 64 | 283 | 9.0 | 16.0 | 0.00 | 0.18 | 0.00 | 67 | 1005.8 |
| 20260509161406 | 63 | 272 | 10.0 | 17.0 | 0.00 | 0.18 | 0.00 | 70 | 1005.7 |
| 20260509160405 | 64 | 260 | 10.0 | 17.0 | 0.00 | 0.18 | 0.00 | 67 | 1005.7 |
| 20260509155404 | 63 | 282 | 7.0 | 17.0 | 0.00 | 0.18 | 0.00 | 71 | 1006.4 |
| 20260509154332 | 63 | 269 | 8.0 | 18.0 | 0.00 | 0.18 | 0.00 | 69 | 1006.4 |
| 20260509153332 | 62 | 271 | 9.0 | 18.0 | 0.00 | 0.18 | 0.00 | 71 | 1006.4 |
| 20260509152331 | 60 | 284 | 11.0 | 15.0 | 0.00 | 0.18 | 0.00 | 73 | 1006.6 |
| 20260509151330 | 60 | 299 | 11.0 | 16.0 | 0.00 | 0.18 | 0.00 | 73 | 1006.3 |
| 20260509150329 | 61 | 313 | 11.0 | 16.0 | 0.00 | 0.18 | 0.00 | 73 | 1006.4 |
| 20260509145328 | 60 | 303 | 9.0 | 16.0 | 0.00 | 0.18 | 0.00 | 77 | 1006.3 |
| 20260509144327 | 61 | 302 | 7.0 | 16.0 | 0.00 | 0.18 | 0.00 | 76 | 1006.4 |
| 20260509143326 | 61 | 272 | 8.0 | 16.0 | 0.00 | 0.18 | 0.00 | 78 | 1006.3 |
| 20260509142325 | 59 | 293 | 9.0 | 16.0 | 0.00 | 0.18 | 0.00 | 77 | 1006.3 |
| 20260509141252 | 58 | 294 | 10.0 | 15.0 | 0.00 | 0.18 | 0.00 | 80 | 1005.9 |